Home   Weather   Ahmedabad   Past weeks

Flag for India Past Weather in Ahmedabad, Gujarat, India — Yesterday and Last 2 Weeks

Now
100 °F

Scattered clouds.


Feels Like: 102 °F
Forecast: 78 / 105 °F
Wind: 10 mph from Southwest

Location: Ahmadabad Airport

Current Time: Apr 30, 2017 at 6:40:15 pm

Latest Report: Apr 30, 2017 at 6:00 pm


Visibility: 4 mi

Pressure: 29.68 "Hg

Humidity: 29%

Dew Point: 63 °F

Location of AhmedabadLocation

Past Weather in Ahmedabad — Graph

°F

Ahmedabad Temperature Yesterday

Maximum temperature yesterday: 102 °F (at 2:30 pm)
Minimum temperature yesterday: 81 °F (at 5:00 am)
Average temperature yesterday: 90 °F

High & Low Weather Summary for the Past Weeks

 TemperatureHumidityPressure
High109 °F (Apr 15, 5:30 pm)84% (Apr 21, 5:30 am)29.89 "Hg (Apr 21, 5:30 am)
Low77 °F (Apr 16, 6:00 am)6% (Apr 27, 5:30 pm)29.59 "Hg (Apr 19, 4:30 pm)
Average91 °F41%29.76 "Hg
* Reported Apr 15 5:30 pm — Apr 30 5:30 pm, Ahmedabad, Weather by CustomWeather, © 2017

Note: Actual official high and low records may vary slightly from our data, if they occured in-between our weather recording intervals... More about our weather records

Advertising

Ahmedabad Weather History for the Previous 24 Hours

Scroll right to see more
 ConditionsComfort  
Time TempWeatherWind HumidityBarometerVisibility
5:30 pm
Sun, Apr 30
102 °FScattered clouds.9 mph24%29.68 "Hg4 mi
5:00 pm104 °FScattered clouds.12 mph20%29.68 "Hg4 mi
4:30 pm104 °FClear.9 mph20%29.68 "Hg4 mi
2:30 pm102 °FClear.9 mph24%29.74 "Hg4 mi
2:00 pm102 °FClear.7 mph24%29.77 "Hg3 mi
1:30 pm100 °FClear.8 mph24%29.77 "Hg2 mi
1:00 pm99 °FClear.10 mph27%29.80 "Hg2 mi
12:30 pm99 °FClear.9 mph33%29.83 "Hg2 mi
12:00 pm97 °FClear.6 mph32%29.83 "Hg2 mi
11:30 am95 °FClear.7 mph34%29.83 "Hg2 mi
11:00 am93 °FClear.5 mph41%29.83 "Hg2 mi
10:30 am91 °FClear.7 mph49%29.83 "Hg2 mi
10:00 am91 °FClear.6 mph52%29.83 "Hg2 mi
9:00 am88 °FClear.3 mph59%29.83 "Hg2 mi
8:30 am86 °FHaze.6 mph62%29.83 "Hg2 mi
8:00 am84 °FHaze.5 mph66%29.83 "Hg2 mi
7:30 am84 °FHaze.3 mph70%29.80 "Hg2 mi
7:00 am82 °FHaze.No wind74%29.80 "Hg2 mi
6:30 am82 °FHaze.No wind74%29.80 "Hg2 mi
6:00 am82 °FHaze.No wind74%29.77 "Hg2 mi
5:30 am84 °FHaze.No wind70%29.77 "Hg2 mi
5:00 am84 °FHaze.5 mph70%29.77 "Hg2 mi
4:30 am84 °FHaze.8 mph70%29.74 "Hg2 mi
4:00 am84 °FHaze.7 mph70%29.74 "Hg2 mi
3:30 am84 °FHaze.5 mph66%29.74 "Hg2 mi
3:00 am84 °FHaze.5 mph70%29.74 "Hg2 mi
2:30 am84 °FHaze.6 mph70%29.74 "Hg2 mi
2:00 am84 °FHaze.6 mph66%29.77 "Hg2 mi
1:00 am88 °FClear.6 mph55%29.80 "Hg2 mi
12:30 am88 °FClear.3 mph52%29.80 "Hg2 mi
11:30 pm
Sat, Apr 29
88 °FClear.7 mph52%29.80 "Hg2 mi
11:00 pm88 °FClear.6 mph55%29.80 "Hg2 mi
10:30 pm90 °FClear.9 mph52%29.80 "Hg2 mi
10:00 pm90 °FHaze.7 mph52%29.80 "Hg2 mi
9:30 pm90 °FHaze.12 mph52%29.77 "Hg2 mi
9:00 pm90 °FHaze.13 mph52%29.77 "Hg2 mi
8:30 pm90 °FHaze.14 mph52%29.77 "Hg2 mi
8:00 pm91 °FDuststorm.10 mph46%29.77 "Hg2 mi
7:30 pm95 °FDuststorm.8 mph41%29.74 "Hg2 mi
7:00 pm97 °FDuststorm.10 mph39%29.74 "Hg2 mi
6:00 pm100 °FDuststorm.9 mph29%29.71 "Hg3 mi
Weather by CustomWeather, © 2017

See weather overviewHow to use our weather pages